Location: Perryvale
(54.4667°N, 113.3833°W)
Time: 03:49:51
(UTC+00:00)

Transit 2A - Visible Passes

Search period start: 14 May 2026 00:00
Search period end: 24 May 2026 00:00
Orbit: 594 x 950 km, 66.7° (Epoch: 13 May)

Date Brightness Start Highest point End Pass type
(mag) Time Alt. Az. Time Alt. Az. Time Alt. Az.
14 May 8.3 04:28:48 10° NW 04:33:08 23° N 04:37:10 10° ENE visible
14 May 7.3 06:12:39 10° NW 06:17:36 37° NNE 06:22:07 10° E visible
14 May 5.8 07:55:53 10° NW 08:01:00 64° SW 08:03:34 26° SSE visible
14 May 7.7 09:41:01 10° W 09:42:53 12° WSW 09:43:51 11° WSW visible
15 May 7.6 05:36:09 10° NW 05:40:56 31° NNE 05:45:18 10° E visible
15 May 5.7 07:19:24 10° NW 07:24:37 88° SW 07:27:36 23° SE visible
15 May 7.3 09:03:32 10° WNW 09:06:49 18° WSW 09:07:54 17° SW visible
16 May 7.8 04:59:37 10° NW 05:04:13 27° NNE 05:08:25 10° ENE visible
16 May 6.0 06:42:55 10° NW 06:48:08 70° NE 06:51:42 18° SE visible
16 May 6.9 08:26:36 10° WNW 08:30:40 25° WSW 08:31:59 22° SW visible
17 May 8.0 04:23:02 10° NW 04:27:27 24° NNE 04:31:32 10° ENE visible
17 May 6.5 06:06:28 10° NW 06:11:37 53° NE 06:15:51 12° ESE visible
17 May 6.5 07:49:53 10° NW 07:54:28 36° WSW 07:56:09 27° SSW visible
18 May 6.9 05:30:01 10° NW 05:35:02 42° NE 05:39:33 10° ESE visible
18 May 6.1 07:13:17 10° NW 07:18:12 51° WSW 07:20:21 28° S visible
19 May 7.3 04:53:32 10° NW 04:58:23 34° NNE 05:02:47 10° E visible
19 May 5.8 06:36:45 10° NW 06:41:51 72° SW 06:44:36 24° SSE visible
19 May 7.7 08:21:29 10° WNW 08:23:50 14° WSW 08:24:54 13° WSW visible
20 May 5.8 06:00:16 10° NW 06:05:26 84° NE 06:08:53 18° SE visible
20 May 7.3 07:44:14 10° WNW 07:47:45 20° WSW 07:49:11 17° SW visible
21 May 6.1 05:23:48 10° NW 05:28:57 63° NE 05:33:12 12° ESE visible
21 May 6.9 07:07:23 10° NW 07:11:35 28° WSW 07:13:30 21° SSW visible
22 May 6.6 04:47:21 10° NW 04:52:24 49° NE 04:56:57 10° ESE visible
22 May 6.5 06:30:42 10° NW 06:35:22 40° WSW 06:37:51 22° S visible
23 May 6.0 05:54:08 10° NW 05:59:04 57° WSW 06:02:14 19° SSE visible
